contact:dominique.lefevre@mio.osupytheas.fr, maurice.libes@osupytheas.fr, didier.mallarino@osupytheas.fr
Project:EMSO http://www.emso-fr.org/EMSO-France
Depth: 2436.0 m
Title:EMSO Ligure Ouest : Data MII capteur CSTAR
DateTime,Latitude,Longitude,Instrument_Serial,Reference_Counts,Signal_Counts,Corrected_Signal_raw_counts,Calculated_Beam_c_inverse_meters,Internal_thermistor_counts
DateTime,Latitude,Longitude,Instrument_Serial,Reference_Counts,Signal_Counts,Corrected_Signal_raw_counts,Calculated_Beam_c_inverse_meters,Internal_thermistor_counts
2023-09-15T00:02:34,42.805,6.029,CST-1368DR,4169,4566,11613,01.185,553
2023-09-15T00:05:35,42.805,6.029,CST-1368DR,4169,4566,11613,01.185,553
2023-09-15T00:08:37,42.805,6.029,CST-1368DR,4169,4565,11611,01.185,553
2023-09-15T00:11:39,42.805,6.029,CST-1368DR,4169,4565,11611,01.185,552
2023-09-15T00:14:40,42.805,6.029,CST-1368DR,4169,4565,11610,01.186,552
2023-09-15T00:17:42,42.805,6.029,CST-1368DR,4169,4566,11612,01.185,553
2023-09-15T00:20:43,42.805,6.029,CST-1368DR,4169,4565,11611,01.185,553
2023-09-15T00:23:45,42.805,6.029,CST-1368DR,4169,4564,11609,01.186,553
2023-09-15T00:26:47,42.805,6.029,CST-1368DR,4169,4565,11611,01.185,553
2023-09-15T00:29:48,42.805,6.029,CST-1368DR,4169,4565,11609,01.186,552
2023-09-15T00:32:50,42.805,6.029,CST-1368DR,4169,4566,11613,01.185,552
2023-09-15T00:35:51,42.805,6.029,CST-1368DR,4169,4565,11611,01.185,552
2023-09-15T00:38:53,42.805,6.029,CST-1368DR,4169,4565,11609,01.186,553
2023-09-15T00:41:54,42.805,6.029,CST-1368DR,4169,4565,11611,01.185,552
2023-09-15T00:44:56,42.805,6.029,CST-1368DR,4169,4566,11612,01.185,553
2023-09-15T00:47:58,42.805,6.029,CST-1368DR,4169,4565,11611,01.185,552
2023-09-15T00:50:59,42.805,6.029,CST-1368DR,4169,4567,11614,01.184,553
2023-09-15T00:54:01,42.805,6.029,CST-1368DR,4169,4566,11612,01.185,553
2023-09-15T00:57:02,42.805,6.029,CST-1368DR,4169,4566,11612,01.185,553
2023-09-15T01:00:04,42.805,6.029,CST-1368DR,4169,4565,11610,01.186,553
2023-09-15T01:03:06,42.805,6.029,CST-1368DR,4169,4566,11613,01.185,553
2023-09-15T01:06:07,42.805,6.029,CST-1368DR,4169,4565,11611,01.185,553
2023-09-15T01:09:09,42.805,6.029,CST-1368DR,4169,4565,11611,01.185,553
2023-09-15T01:12:10,42.805,6.029,CST-1368DR,4169,4565,11611,01.185,553
2023-09-15T01:15:12,42.805,6.029,CST-1368DR,4169,4570,11624,01.181,552
2023-09-15T01:18:13,42.805,6.029,CST-1368DR,4169,4541,11550,01.206,552
2023-09-15T01:21:15,42.805,6.029,CST-1368DR,4169,4566,11612,01.185,552
2023-09-15T01:24:17,42.805,6.029,CST-1368DR,4169,4566,11612,01.185,552
2023-09-15T01:27:18,42.805,6.029,CST-1368DR,4169,4565,11610,01.186,552
2023-09-15T01:30:20,42.805,6.029,CST-1368DR,4169,4566,11614,01.184,553
2023-09-15T01:33:21,42.805,6.029,CST-1368DR,4169,4567,11614,01.184,553
2023-09-15T01:36:23,42.805,6.029,CST-1368DR,4169,4566,11613,01.185,552
2023-09-15T01:39:24,42.805,6.029,CST-1368DR,4169,4566,11614,01.184,553
2023-09-15T01:42:26,42.805,6.029,CST-1368DR,4169,4566,11614,01.184,553
2023-09-15T01:45:28,42.805,6.029,CST-1368DR,4169,4571,11627,01.180,553
2023-09-15T01:48:29,42.805,6.029,CST-1368DR,4169,4566,11612,01.185,552
2023-09-15T01:51:31,42.805,6.029,CST-1368DR,4169,4568,11618,01.183,553
2023-09-15T01:54:32,42.805,6.029,CST-1368DR,4169,4567,11614,01.184,553
2023-09-15T01:57:34,42.805,6.029,CST-1368DR,4169,4567,11615,01.184,553
2023-09-15T02:00:36,42.805,6.029,CST-1368DR,4169,4567,11614,01.184,553
2023-09-15T02:03:37,42.805,6.029,CST-1368DR,4169,4567,11614,01.184,552
2023-09-15T02:06:39,42.805,6.029,CST-1368DR,4169,4577,11640,01.175,553
2023-09-15T02:09:40,42.805,6.029,CST-1368DR,4169,4576,11639,01.176,552
2023-09-15T02:12:42,42.805,6.029,CST-1368DR,4169,4575,11637,01.176,553
2023-09-15T02:15:43,42.805,6.029,CST-1368DR,4169,4576,11639,01.176,553
2023-09-15T02:18:45,42.805,6.029,CST-1368DR,4169,4577,11641,01.175,553
2023-09-15T02:21:47,42.805,6.029,CST-1368DR,4169,4576,11639,01.176,553
2023-09-15T02:24:48,42.805,6.029,CST-1368DR,4169,4577,11640,01.175,552
2023-09-15T02:27:50,42.805,6.029,CST-1368DR,4169,4576,11639,01.176,553
2023-09-15T02:30:51,42.805,6.029,CST-1368DR,4169,4577,11640,01.175,553
2023-09-15T02:33:53,42.805,6.029,CST-1368DR,4169,4577,11641,01.175,553
2023-09-15T02:36:54,42.805,6.029,CST-1368DR,4169,4577,11641,01.175,553
2023-09-15T02:39:56,42.805,6.029,CST-1368DR,4169,4577,11641,01.175,553
2023-09-15T02:42:58,42.805,6.029,CST-1368DR,4169,4576,11639,01.176,553
2023-09-15T02:45:59,42.805,6.029,CST-1368DR,4169,4577,11640,01.175,552
2023-09-15T02:49:01,42.805,6.029,CST-1368DR,4169,4577,11641,01.175,552
2023-09-15T02:52:02,42.805,6.029,CST-1368DR,4169,4576,11639,01.176,553
2023-09-15T02:55:04,42.805,6.029,CST-1368DR,4169,4576,11639,01.176,553
2023-09-15T02:58:06,42.805,6.029,CST-1368DR,4169,4577,11640,01.175,552
2023-09-15T03:01:07,42.805,6.029,CST-1368DR,4169,4577,11641,01.175,552
2023-09-15T03:04:09,42.805,6.029,CST-1368DR,4169,4577,11642,01.175,552
2023-09-15T03:07:10,42.805,6.029,CST-1368DR,4169,4576,11639,01.176,553
2023-09-15T03:10:12,42.805,6.029,CST-1368DR,4169,4577,11640,01.175,553
2023-09-15T03:13:13,42.805,6.029,CST-1368DR,4169,4577,11640,01.175,552
2023-09-15T03:16:15,42.805,6.029,CST-1368DR,4169,4576,11639,01.176,553
2023-09-15T03:19:17,42.805,6.029,CST-1368DR,4169,4577,11640,01.175,553
2023-09-15T03:22:18,42.805,6.029,CST-1368DR,4169,4576,11639,01.176,552
2023-09-15T03:25:20,42.805,6.029,CST-1368DR,4169,4577,11640,01.175,552
2023-09-15T03:28:21,42.805,6.029,CST-1368DR,4169,4576,11637,01.176,552
2023-09-15T03:31:23,42.805,6.029,CST-1368DR,4169,4577,11641,01.175,552
2023-09-15T03:34:24,42.805,6.029,CST-1368DR,4169,4575,11636,01.177,552
2023-09-15T03:37:26,42.805,6.029,CST-1368DR,4169,4576,11639,01.176,552
2023-09-15T03:40:28,42.805,6.029,CST-1368DR,4169,4576,11637,01.176,553
2023-09-15T03:43:29,42.805,6.029,CST-1368DR,4169,4576,11639,01.176,552
2023-09-15T03:46:31,42.805,6.029,CST-1368DR,4169,4577,11641,01.175,553
2023-09-15T03:49:32,42.805,6.029,CST-1368DR,4169,4576,11639,01.176,553
2023-09-15T03:52:34,42.805,6.029,CST-1368DR,4169,4577,11640,01.175,553
2023-09-15T03:55:35,42.805,6.029,CST-1368DR,4169,4577,11641,01.175,552
2023-09-15T03:58:37,42.805,6.029,CST-1368DR,4169,4577,11640,01.175,553
2023-09-15T04:01:39,42.805,6.029,CST-1368DR,4169,4576,11639,01.176,553
2023-09-15T04:04:40,42.805,6.029,CST-1368DR,4169,4577,11640,01.175,553
2023-09-15T04:07:42,42.805,6.029,CST-1368DR,4169,4577,11641,01.175,553
2023-09-15T04:10:43,42.805,6.029,CST-1368DR,4169,4577,11641,01.175,553
2023-09-15T04:13:45,42.805,6.029,CST-1368DR,4169,4575,11636,01.177,552
2023-09-15T04:16:47,42.805,6.029,CST-1368DR,4169,4577,11640,01.175,552
2023-09-15T04:19:48,42.805,6.029,CST-1368DR,4169,4577,11641,01.175,553
2023-09-15T04:22:50,42.805,6.029,CST-1368DR,4169,4576,11639,01.176,553
2023-09-15T04:25:51,42.805,6.029,CST-1368DR,4169,4576,11639,01.176,552
2023-09-15T04:28:53,42.805,6.029,CST-1368DR,4169,4577,11640,01.175,553
2023-09-15T04:31:56,42.805,6.029,CST-1368DR,4169,4577,11640,01.175,553
2023-09-15T04:34:58,42.805,6.029,CST-1368DR,4169,4576,11637,01.176,553
2023-09-15T04:37:59,42.805,6.029,CST-1368DR,4169,4577,11640,01.175,553
2023-09-15T04:41:01,42.805,6.029,CST-1368DR,4169,4577,11640,01.175,553
2023-09-15T04:44:02,42.805,6.029,CST-1368DR,4169,4576,11639,01.176,553
2023-09-15T04:47:04,42.805,6.029,CST-1368DR,4169,4575,11636,01.177,552
2023-09-15T04:50:06,42.805,6.029,CST-1368DR,4169,4576,11637,01.176,552
2023-09-15T04:53:07,42.805,6.029,CST-1368DR,4169,4575,11637,01.176,553
2023-09-15T04:56:09,42.805,6.029,CST-1368DR,4169,4575,11636,01.177,553
2023-09-15T04:59:10,42.805,6.029,CST-1368DR,4169,4575,11635,01.177,553
2023-09-15T05:02:12,42.805,6.029,CST-1368DR,4169,4575,11637,01.176,552
2023-09-15T05:05:13,42.805,6.029,CST-1368DR,4169,4575,11637,01.176,553
2023-09-15T05:08:15,42.805,6.029,CST-1368DR,4169,4573,11631,01.178,552
2023-09-15T05:11:17,42.805,6.029,CST-1368DR,4169,4572,11628,01.180,553
2023-09-15T05:14:18,42.805,6.029,CST-1368DR,4169,4572,11629,01.179,552
2023-09-15T05:17:20,42.805,6.029,CST-1368DR,4169,4571,11626,01.180,552
2023-09-15T05:20:21,42.805,6.029,CST-1368DR,4169,4571,11625,01.181,552
2023-09-15T05:23:23,42.805,6.029,CST-1368DR,4169,4570,11624,01.181,553
2023-09-15T05:26:25,42.805,6.029,CST-1368DR,4169,4570,11623,01.181,552
2023-09-15T05:29:26,42.805,6.029,CST-1368DR,4169,4570,11623,01.181,552
2023-09-15T05:32:28,42.805,6.029,CST-1368DR,4169,4570,11623,01.181,552
2023-09-15T05:35:29,42.805,6.029,CST-1368DR,4169,4570,11622,01.182,552
2023-09-15T05:38:31,42.805,6.029,CST-1368DR,4169,4570,11624,01.181,553
2023-09-15T05:41:32,42.805,6.029,CST-1368DR,4169,4569,11620,01.182,552
2023-09-15T05:44:34,42.805,6.029,CST-1368DR,4169,4569,11620,01.182,553
2023-09-15T05:47:36,42.805,6.029,CST-1368DR,4169,4569,11621,01.182,553
2023-09-15T05:50:37,42.805,6.029,CST-1368DR,4169,4570,11623,01.181,552
2023-09-15T05:53:39,42.805,6.029,CST-1368DR,4169,4569,11620,01.182,553
2023-09-15T05:56:40,42.805,6.029,CST-1368DR,4169,4568,11619,01.183,553
2023-09-15T05:59:42,42.805,6.029,CST-1368DR,4169,4570,11622,01.182,552
2023-09-15T06:02:43,42.805,6.029,CST-1368DR,4169,4569,11620,01.182,553
2023-09-15T06:05:45,42.805,6.029,CST-1368DR,4169,4568,11618,01.183,553
2023-09-15T06:08:47,42.805,6.029,CST-1368DR,4169,4568,11617,01.183,553
2023-09-15T06:11:48,42.805,6.029,CST-1368DR,4169,4569,11621,01.182,552
2023-09-15T06:14:50,42.805,6.029,CST-1368DR,4169,4568,11618,01.183,553
2023-09-15T06:17:51,42.805,6.029,CST-1368DR,4169,4567,11616,01.184,553
2023-09-15T06:20:53,42.805,6.029,CST-1368DR,4169,4569,11620,01.182,552
2023-09-15T06:23:55,42.805,6.029,CST-1368DR,4169,4569,11620,01.182,553
2023-09-15T06:26:56,42.805,6.029,CST-1368DR,4169,4567,11616,01.184,553
2023-09-15T06:29:58,42.805,6.029,CST-1368DR,4169,4568,11619,01.183,553
2023-09-15T06:32:59,42.805,6.029,CST-1368DR,4169,4567,11616,01.184,553
2023-09-15T06:36:01,42.805,6.029,CST-1368DR,4169,4568,11619,01.183,552
2023-09-15T06:39:03,42.805,6.029,CST-1368DR,4169,4568,11618,01.183,553
2023-09-15T06:42:04,42.805,6.029,CST-1368DR,4169,4568,11619,01.183,552
2023-09-15T06:45:06,42.805,6.029,CST-1368DR,4169,4568,11618,01.183,553
2023-09-15T06:48:07,42.805,6.029,CST-1368DR,4169,4568,11617,01.183,553
2023-09-15T06:51:09,42.805,6.029,CST-1368DR,4169,4568,11618,01.183,553
2023-09-15T06:54:10,42.805,6.029,CST-1368DR,4169,4574,11633,01.178,553
2023-09-15T06:57:12,42.805,6.029,CST-1368DR,4169,4571,11625,01.181,553
2023-09-15T07:00:14,42.805,6.029,CST-1368DR,4169,4570,11622,01.182,553
2023-09-15T07:03:15,42.805,6.029,CST-1368DR,4169,4569,11620,01.182,553
2023-09-15T07:06:17,42.805,6.029,CST-1368DR,4169,4569,11621,01.182,553
2023-09-15T07:09:18,42.805,6.029,CST-1368DR,4169,4568,11618,01.183,552
2023-09-15T07:12:20,42.805,6.029,CST-1368DR,4169,4568,11618,01.183,552
2023-09-15T07:15:21,42.805,6.029,CST-1368DR,4169,4567,11614,01.184,553
2023-09-15T07:18:23,42.805,6.029,CST-1368DR,4169,4567,11616,01.184,552
2023-09-15T07:21:25,42.805,6.029,CST-1368DR,4169,4568,11618,01.183,553
2023-09-15T07:24:26,42.805,6.029,CST-1368DR,4169,4567,11615,01.184,553
2023-09-15T07:27:28,42.805,6.029,CST-1368DR,4169,4568,11618,01.183,553
2023-09-15T07:30:29,42.805,6.029,CST-1368DR,4169,4568,11618,01.183,553
2023-09-15T07:33:31,42.805,6.029,CST-1368DR,4169,4568,11617,01.183,553
2023-09-15T07:36:33,42.805,6.029,CST-1368DR,4169,4568,11618,01.183,553
2023-09-15T07:39:34,42.805,6.029,CST-1368DR,4169,4567,11616,01.184,553
2023-09-15T07:42:36,42.805,6.029,CST-1368DR,4169,4567,11616,01.184,553
2023-09-15T07:45:37,42.805,6.029,CST-1368DR,4169,4567,11616,01.184,553
2023-09-15T07:48:39,42.805,6.029,CST-1368DR,4169,4566,11614,01.184,552
2023-09-15T07:51:40,42.805,6.029,CST-1368DR,4169,4568,11618,01.183,553
2023-09-15T07:54:42,42.805,6.029,CST-1368DR,4169,4568,11617,01.183,552
2023-09-15T07:57:44,42.805,6.029,CST-1368DR,4169,4566,11614,01.184,553
2023-09-15T08:00:45,42.805,6.029,CST-1368DR,4169,4567,11616,01.184,552
2023-09-15T08:03:47,42.805,6.029,CST-1368DR,4169,4568,11617,01.183,552
2023-09-15T08:06:48,42.805,6.029,CST-1368DR,4168,4567,11617,01.183,553
2023-09-15T08:09:50,42.805,6.029,CST-1368DR,4168,4567,11618,01.183,552
2023-09-15T08:12:51,42.805,6.029,CST-1368DR,4169,4567,11616,01.184,552
2023-09-15T08:15:53,42.805,6.029,CST-1368DR,4169,4567,11615,01.184,553
2023-09-15T08:18:55,42.805,6.029,CST-1368DR,4169,4567,11614,01.184,552
2023-09-15T08:21:56,42.805,6.029,CST-1368DR,4169,4567,11615,01.184,552
2023-09-15T08:24:58,42.805,6.029,CST-1368DR,4169,4574,11632,01.178,552
2023-09-15T08:27:59,42.805,6.029,CST-1368DR,4169,4568,11618,01.183,553
2023-09-15T08:31:03,42.805,6.029,CST-1368DR,4169,4567,11616,01.184,552
2023-09-15T08:34:04,42.805,6.029,CST-1368DR,4169,4568,11617,01.183,552
2023-09-15T08:37:06,42.805,6.029,CST-1368DR,4169,4568,11618,01.183,553
2023-09-15T08:40:07,42.805,6.029,CST-1368DR,4169,4568,11617,01.183,553
2023-09-15T08:43:09,42.805,6.029,CST-1368DR,4169,4568,11618,01.183,552
2023-09-15T08:46:10,42.805,6.029,CST-1368DR,4169,4568,11617,01.183,552
2023-09-15T08:49:12,42.805,6.029,CST-1368DR,4168,4566,11615,01.184,552
2023-09-15T08:52:14,42.805,6.029,CST-1368DR,4169,4566,11613,01.185,553
2023-09-15T08:55:15,42.805,6.029,CST-1368DR,4168,4565,11613,01.185,553
2023-09-15T08:58:17,42.805,6.029,CST-1368DR,4169,4566,11614,01.184,553
2023-09-15T09:01:18,42.805,6.029,CST-1368DR,4169,4568,11617,01.183,553
2023-09-15T09:04:20,42.805,6.029,CST-1368DR,4168,4566,11616,01.184,553
2023-09-15T09:07:21,42.805,6.029,CST-1368DR,4168,4566,11617,01.183,553
2023-09-15T09:10:23,42.805,6.029,CST-1368DR,4169,4567,11614,01.184,553
2023-09-15T09:13:25,42.805,6.029,CST-1368DR,4168,4563,11608,01.186,552
2023-09-15T09:16:26,42.805,6.029,CST-1368DR,4169,4567,11615,01.184,553
2023-09-15T09:19:28,42.805,6.029,CST-1368DR,4169,4566,11612,01.185,553
2023-09-15T09:22:29,42.805,6.029,CST-1368DR,4168,4567,11617,01.183,553
2023-09-15T09:25:31,42.805,6.029,CST-1368DR,4168,4565,11614,01.184,552
2023-09-15T09:28:33,42.805,6.029,CST-1368DR,4169,4565,11611,01.185,553
2023-09-15T09:31:34,42.805,6.029,CST-1368DR,4168,4566,11615,01.184,552
2023-09-15T09:34:36,42.805,6.029,CST-1368DR,4168,4568,11622,01.182,553
2023-09-15T09:37:37,42.805,6.029,CST-1368DR,4168,4566,11615,01.184,552
2023-09-15T09:40:39,42.805,6.029,CST-1368DR,4168,4564,11611,01.185,552
2023-09-15T09:43:40,42.805,6.029,CST-1368DR,4169,4565,11611,01.185,553
2023-09-15T09:46:42,42.805,6.029,CST-1368DR,4169,4565,11610,01.186,552
2023-09-15T09:49:44,42.805,6.029,CST-1368DR,4169,4566,11614,01.184,552
2023-09-15T09:52:45,42.805,6.029,CST-1368DR,4169,4566,11612,01.185,553
2023-09-15T09:55:47,42.805,6.029,CST-1368DR,4169,4566,11614,01.184,552
2023-09-15T09:58:48,42.805,6.029,CST-1368DR,4169,4567,11614,01.184,553
2023-09-15T10:01:50,42.805,6.029,CST-1368DR,4168,4566,11616,01.184,553
2023-09-15T10:04:51,42.805,6.029,CST-1368DR,4169,4566,11613,01.185,553
2023-09-15T10:07:53,42.805,6.029,CST-1368DR,4169,4567,11615,01.184,553
2023-09-15T10:10:55,42.805,6.029,CST-1368DR,4169,4565,11611,01.185,552
2023-09-15T10:13:56,42.805,6.029,CST-1368DR,4169,4566,11613,01.185,552
2023-09-15T10:16:58,42.805,6.029,CST-1368DR,4169,4566,11612,01.185,553
2023-09-15T10:19:59,42.805,6.029,CST-1368DR,4169,4567,11614,01.184,553
2023-09-15T10:23:01,42.805,6.029,CST-1368DR,4168,4566,11616,01.184,553
2023-09-15T10:26:03,42.805,6.029,CST-1368DR,4169,4567,11614,01.184,553
2023-09-15T10:29:04,42.805,6.029,CST-1368DR,4169,4566,11613,01.185,553
2023-09-15T10:32:06,42.805,6.029,CST-1368DR,4168,4566,11615,01.184,552
2023-09-15T10:35:07,42.805,6.029,CST-1368DR,4168,4565,11613,01.185,553
2023-09-15T10:38:09,42.805,6.029,CST-1368DR,4168,4565,11613,01.185,553
2023-09-15T10:41:11,42.805,6.029,CST-1368DR,4169,4565,11611,01.185,553
2023-09-15T10:44:12,42.805,6.029,CST-1368DR,4168,4565,11614,01.184,553
2023-09-15T10:47:14,42.805,6.029,CST-1368DR,4168,4563,11609,01.186,552
2023-09-15T10:50:15,42.805,6.029,CST-1368DR,4168,4565,11614,01.184,552
2023-09-15T10:53:17,42.805,6.029,CST-1368DR,4168,4565,11613,01.185,552
2023-09-15T10:56:18,42.805,6.029,CST-1368DR,4168,4567,11619,01.183,553
2023-09-15T10:59:20,42.805,6.029,CST-1368DR,4168,4565,11613,01.185,553
2023-09-15T11:02:22,42.805,6.029,CST-1368DR,4168,4565,11612,01.185,553
2023-09-15T11:05:23,42.805,6.029,CST-1368DR,4168,4565,11612,01.185,553
2023-09-15T11:08:25,42.805,6.029,CST-1368DR,4168,4565,11613,01.185,553
2023-09-15T11:11:26,42.805,6.029,CST-1368DR,4168,4565,11613,01.185,553
2023-09-15T11:14:28,42.805,6.029,CST-1368DR,4168,4565,11613,01.185,553
2023-09-15T11:17:30,42.805,6.029,CST-1368DR,4168,4566,11615,01.184,552
2023-09-15T11:20:31,42.805,6.029,CST-1368DR,4168,4565,11613,01.185,553
2023-09-15T11:23:33,42.805,6.029,CST-1368DR,4168,4565,11613,01.185,552
2023-09-15T11:26:34,42.805,6.029,CST-1368DR,4168,4565,11614,01.184,552
2023-09-15T11:29:36,42.805,6.029,CST-1368DR,4168,4566,11616,01.184,553
2023-09-15T11:32:37,42.805,6.029,CST-1368DR,4168,4565,11614,01.184,552
2023-09-15T11:35:39,42.805,6.029,CST-1368DR,4168,4565,11613,01.185,553
2023-09-15T11:38:41,42.805,6.029,CST-1368DR,4168,4564,11611,01.185,553
2023-09-15T11:41:42,42.805,6.029,CST-1368DR,4168,4565,11613,01.185,553
2023-09-15T11:44:44,42.805,6.029,CST-1368DR,4168,4564,11610,01.186,553
2023-09-15T11:47:45,42.805,6.029,CST-1368DR,4168,4564,11610,01.186,552
2023-09-15T11:50:47,42.805,6.029,CST-1368DR,4168,4565,11612,01.185,553
2023-09-15T11:53:48,42.805,6.029,CST-1368DR,4168,4564,11611,01.185,552
2023-09-15T11:56:50,42.805,6.029,CST-1368DR,4168,4564,11611,01.185,553
2023-09-15T11:59:52,42.805,6.029,CST-1368DR,4168,4566,11615,01.184,552
2023-09-15T12:02:53,42.805,6.029,CST-1368DR,4168,4565,11614,01.184,552
2023-09-15T12:05:55,42.805,6.029,CST-1368DR,4168,4565,11613,01.185,553
2023-09-15T12:08:56,42.805,6.029,CST-1368DR,4168,4565,11613,01.185,553
2023-09-15T12:11:58,42.805,6.029,CST-1368DR,4168,4565,11612,01.185,553
2023-09-15T12:15:00,42.805,6.029,CST-1368DR,4168,4565,11614,01.184,553
2023-09-15T12:18:01,42.805,6.029,CST-1368DR,4168,4565,11613,01.185,553
2023-09-15T12:21:03,42.805,6.029,CST-1368DR,4168,4565,11613,01.185,553
2023-09-15T12:24:04,42.805,6.029,CST-1368DR,4168,4565,11613,01.185,553
2023-09-15T12:27:06,42.805,6.029,CST-1368DR,4168,4564,11610,01.186,553
2023-09-15T12:30:09,42.805,6.029,CST-1368DR,4168,4563,11608,01.186,552
2023-09-15T12:33:10,42.805,6.029,CST-1368DR,4168,4565,11612,01.185,553
2023-09-15T12:36:12,42.805,6.029,CST-1368DR,4168,4565,11613,01.185,552
2023-09-15T12:39:13,42.805,6.029,CST-1368DR,4168,4563,11609,01.186,552
2023-09-15T12:42:15,42.805,6.029,CST-1368DR,4168,4565,11613,01.185,552
2023-09-15T12:45:17,42.805,6.029,CST-1368DR,4168,4564,11611,01.185,553
2023-09-15T12:48:18,42.805,6.029,CST-1368DR,4168,4565,11613,01.185,552
2023-09-15T12:51:20,42.805,6.029,CST-1368DR,4168,4564,11611,01.185,553
2023-09-15T12:54:21,42.805,6.029,CST-1368DR,4168,4565,11614,01.184,552
2023-09-15T12:57:23,42.805,6.029,CST-1368DR,4168,4564,11610,01.186,553
2023-09-15T13:00:24,42.805,6.029,CST-1368DR,4168,4565,11612,01.185,553
2023-09-15T13:03:26,42.805,6.029,CST-1368DR,4168,4565,11612,01.185,553
2023-09-15T13:06:28,42.805,6.029,CST-1368DR,4168,4565,11614,01.184,552
2023-09-15T13:09:29,42.805,6.029,CST-1368DR,4168,4565,11614,01.184,553
2023-09-15T13:12:31,42.805,6.029,CST-1368DR,4168,4566,11615,01.184,553
2023-09-15T13:15:32,42.805,6.029,CST-1368DR,4168,4563,11609,01.186,553
2023-09-15T13:18:34,42.805,6.029,CST-1368DR,4168,4566,11617,01.183,553
2023-09-15T13:21:35,42.805,6.029,CST-1368DR,4168,4564,11611,01.185,552
2023-09-15T13:24:37,42.805,6.029,CST-1368DR,4168,4566,11615,01.184,552
2023-09-15T13:27:39,42.805,6.029,CST-1368DR,4168,4565,11613,01.185,553
2023-09-15T13:30:40,42.805,6.029,CST-1368DR,4168,4567,11618,01.183,553
2023-09-15T13:33:42,42.805,6.029,CST-1368DR,4168,4565,11613,01.185,552
2023-09-15T13:36:43,42.805,6.029,CST-1368DR,4168,4566,11615,01.184,552
2023-09-15T13:39:45,42.805,6.029,CST-1368DR,4168,4566,11617,01.183,553
2023-09-15T13:42:47,42.805,6.029,CST-1368DR,4168,4566,11616,01.184,552
2023-09-15T13:45:48,42.805,6.029,CST-1368DR,4168,4566,11615,01.184,552
2023-09-15T13:48:50,42.805,6.029,CST-1368DR,4168,4566,11615,01.184,553
2023-09-15T13:51:51,42.805,6.029,CST-1368DR,4168,4566,11615,01.184,553
2023-09-15T13:54:53,42.805,6.029,CST-1368DR,4168,4566,11615,01.184,552
2023-09-15T13:57:54,42.805,6.029,CST-1368DR,4168,4565,11614,01.184,552
2023-09-15T14:00:56,42.805,6.029,CST-1368DR,4168,4565,11614,01.184,553
2023-09-15T14:03:58,42.805,6.029,CST-1368DR,4168,4565,11614,01.184,553
2023-09-15T14:06:59,42.805,6.029,CST-1368DR,4168,4565,11613,01.185,553
2023-09-15T14:10:01,42.805,6.029,CST-1368DR,4168,4565,11613,01.185,553
2023-09-15T14:13:02,42.805,6.029,CST-1368DR,4168,4566,11617,01.183,553
2023-09-15T14:16:04,42.805,6.029,CST-1368DR,4168,4565,11613,01.185,553
2023-09-15T14:19:05,42.805,6.029,CST-1368DR,4168,4564,11610,01.186,552
2023-09-15T14:22:07,42.805,6.029,CST-1368DR,4168,4564,11611,01.185,553
2023-09-15T14:25:09,42.805,6.029,CST-1368DR,4168,4565,11614,01.184,553
2023-09-15T14:28:10,42.805,6.029,CST-1368DR,4168,4565,11612,01.185,552
2023-09-15T14:31:13,42.805,6.029,CST-1368DR,4168,4565,11613,01.185,553
2023-09-15T14:34:15,42.805,6.029,CST-1368DR,4168,4565,11613,01.185,553
2023-09-15T14:37:16,42.805,6.029,CST-1368DR,4168,4564,11610,01.186,552
2023-09-15T14:40:18,42.805,6.029,CST-1368DR,4168,4564,11611,01.185,553
2023-09-15T14:43:20,42.805,6.029,CST-1368DR,4168,4565,11613,01.185,553
2023-09-15T14:46:21,42.805,6.029,CST-1368DR,4168,4565,11613,01.185,553
2023-09-15T14:49:23,42.805,6.029,CST-1368DR,4168,4564,11611,01.185,553
2023-09-15T14:52:24,42.805,6.029,CST-1368DR,4168,4563,11608,01.186,552
2023-09-15T14:55:26,42.805,6.029,CST-1368DR,4168,4562,11606,01.187,552
2023-09-15T14:58:28,42.805,6.029,CST-1368DR,4168,4562,11606,01.187,552
2023-09-15T15:01:29,42.805,6.029,CST-1368DR,4168,4565,11612,01.185,553
2023-09-15T15:04:31,42.805,6.029,CST-1368DR,4168,4565,11612,01.185,552
2023-09-15T15:07:32,42.805,6.029,CST-1368DR,4168,4564,11610,01.186,552
2023-09-15T15:10:34,42.805,6.029,CST-1368DR,4168,4564,11611,01.185,553
2023-09-15T15:13:35,42.805,6.029,CST-1368DR,4168,4564,11610,01.186,552
2023-09-15T15:16:37,42.805,6.029,CST-1368DR,4168,4564,11611,01.185,553
2023-09-15T15:19:39,42.805,6.029,CST-1368DR,4168,4564,11610,01.186,553
2023-09-15T15:22:40,42.805,6.029,CST-1368DR,4168,4565,11613,01.185,553
2023-09-15T15:25:42,42.805,6.029,CST-1368DR,4168,4564,11610,01.186,553
2023-09-15T15:28:43,42.805,6.029,CST-1368DR,4168,4564,11610,01.186,553
2023-09-15T15:31:45,42.805,6.029,CST-1368DR,4168,4564,11611,01.185,552
2023-09-15T15:34:46,42.805,6.029,CST-1368DR,4168,4563,11608,01.186,553
2023-09-15T15:37:48,42.805,6.029,CST-1368DR,4168,4563,11608,01.186,552
2023-09-15T15:40:50,42.805,6.029,CST-1368DR,4168,4563,11608,01.186,553
2023-09-15T15:43:51,42.805,6.029,CST-1368DR,4168,4564,11611,01.185,553
2023-09-15T15:46:53,42.805,6.029,CST-1368DR,4168,4564,11610,01.186,552
2023-09-15T15:49:54,42.805,6.029,CST-1368DR,4168,4564,11611,01.185,552
2023-09-15T15:52:56,42.805,6.029,CST-1368DR,4168,4564,11610,01.186,553
2023-09-15T15:55:58,42.805,6.029,CST-1368DR,4168,4564,11610,01.186,553
2023-09-15T15:58:59,42.805,6.029,CST-1368DR,4168,4564,11610,01.186,553
2023-09-15T16:02:01,42.805,6.029,CST-1368DR,4168,4564,11610,01.186,552
2023-09-15T16:05:02,42.805,6.029,CST-1368DR,4168,4562,11606,01.187,553
2023-09-15T16:08:04,42.805,6.029,CST-1368DR,4168,4565,11612,01.185,553
2023-09-15T16:11:05,42.805,6.029,CST-1368DR,4168,4564,11611,01.185,553
2023-09-15T16:14:07,42.805,6.029,CST-1368DR,4168,4564,11610,01.186,552
2023-09-15T16:17:09,42.805,6.029,CST-1368DR,4168,4564,11611,01.185,553
2023-09-15T16:20:10,42.805,6.029,CST-1368DR,4168,4564,11611,01.185,553
2023-09-15T16:23:12,42.805,6.029,CST-1368DR,4168,4564,11610,01.186,553
2023-09-15T16:26:13,42.805,6.029,CST-1368DR,4168,4564,11610,01.186,553
2023-09-15T16:29:15,42.805,6.029,CST-1368DR,4168,4561,11604,01.188,553
2023-09-15T16:32:16,42.805,6.029,CST-1368DR,4168,4564,11611,01.185,553
2023-09-15T16:35:18,42.805,6.029,CST-1368DR,4168,4563,11609,01.186,553
2023-09-15T16:38:20,42.805,6.029,CST-1368DR,4168,4563,11607,01.187,553